Location: Altleiningen
(49.5078°N, 8.0741°E)
Time: 16:19:54
(UTC+00:00)

Cosmos 1470 Rocket - Pass Details

Date: 14 June 2025
Orbit: 599 x 626 km, 82.5° (Epoch: 19 July)

Event Time Altitude Azimuth Distance (km) Brightness Sun altitude
Rises 21:13:43 0° 345° (NNW) 2,867 8.7 -11.3°
Reaches altitude 10° 21:15:59 10° 339° (NNW) 1,962 7.6 -11.5°
Maximum altitude 21:20:08 46° 267° (W) 821 4.4 -11.8°
Drops below altitude 10° 21:24:17 10° 194° (SSW) 1,961 5.7 -12.1°
Enters shadow 21:24:22 10° 193° (SSW) 1,996 5.7 -12.2°
